Year,Month,Day,Hour,Minute,Value (Times are PST for windspeed in km/hr)
2015,08,29,00,00,2.30
2015,08,29,00,01,1.80
2015,08,29,00,02,2.00
2015,08,29,00,03,1.10
2015,08,29,00,04,2.10
2015,08,29,00,05,1.80
2015,08,29,00,06,2.30
2015,08,29,00,07,3.70
2015,08,29,00,08,3.60
2015,08,29,00,09,3.50
2015,08,29,00,10,3.10
2015,08,29,00,11,2.50
2015,08,29,00,12,1.30
2015,08,29,00,13,0.80
2015,08,29,00,14,0.90
2015,08,29,00,15,1.40
2015,08,29,00,16,2.40
2015,08,29,00,17,2.10
2015,08,29,00,18,1.00
2015,08,29,00,19,1.90
2015,08,29,00,20,1.70
2015,08,29,00,21,0.30
2015,08,29,00,22,0.70
2015,08,29,00,23,0.30
2015,08,29,00,24,0.90
2015,08,29,00,25,0.40
2015,08,29,00,26,0.00
2015,08,29,00,27,1.20
2015,08,29,00,28,2.00
2015,08,29,00,29,1.30
2015,08,29,00,30,2.00
2015,08,29,00,31,0.40
2015,08,29,00,32,0.00
2015,08,29,00,33,0.00
2015,08,29,00,34,1.90
2015,08,29,00,35,3.50
2015,08,29,00,36,4.40
2015,08,29,00,37,3.70
2015,08,29,00,38,2.00
2015,08,29,00,39,1.20
2015,08,29,00,40,1.50
2015,08,29,00,41,3.60
2015,08,29,00,42,1.80
2015,08,29,00,43,0.30
2015,08,29,00,44,0.30
2015,08,29,00,45,1.40
2015,08,29,00,46,2.70
2015,08,29,00,47,3.00
2015,08,29,00,48,2.80
2015,08,29,00,49,1.70
2015,08,29,00,50,1.70
2015,08,29,00,51,0.40
2015,08,29,00,52,0.00
2015,08,29,00,53,0.00
2015,08,29,00,54,0.20
2015,08,29,00,55,1.10
2015,08,29,00,56,0.30
2015,08,29,00,57,0.90
2015,08,29,00,58,1.60
2015,08,29,00,59,0.30
2015,08,29,01,00,0.00
2015,08,29,01,01,0.00
2015,08,29,01,02,2.10
2015,08,29,01,03,1.60
2015,08,29,01,04,1.80
2015,08,29,01,05,0.00
2015,08,29,01,06,0.00
2015,08,29,01,07,0.00
2015,08,29,01,08,0.40
2015,08,29,01,09,1.20
2015,08,29,01,10,1.00
2015,08,29,01,11,0.40
2015,08,29,01,12,0.00
2015,08,29,01,13,0.80
2015,08,29,01,14,2.50
2015,08,29,01,15,3.80
2015,08,29,01,16,4.30
2015,08,29,01,17,3.50
2015,08,29,01,18,3.90
2015,08,29,01,19,3.60
2015,08,29,01,20,5.80
2015,08,29,01,21,6.20
2015,08,29,01,22,5.80
2015,08,29,01,23,4.20
2015,08,29,01,24,4.40
2015,08,29,01,25,3.40
2015,08,29,01,26,2.90
2015,08,29,01,27,3.50
2015,08,29,01,28,3.60
2015,08,29,01,29,2.00
2015,08,29,01,30,3.30
2015,08,29,01,31,4.50
2015,08,29,01,32,8.10
2015,08,29,01,33,9.70
2015,08,29,01,34,13.50
2015,08,29,01,35,13.70
2015,08,29,01,36,11.60
2015,08,29,01,37,12.40
2015,08,29,01,38,7.30
2015,08,29,01,39,9.40
2015,08,29,01,40,7.30
2015,08,29,01,41,7.20
2015,08,29,01,42,8.10
2015,08,29,01,43,4.20
2015,08,29,01,44,2.60
2015,08,29,01,45,4.30
2015,08,29,01,46,4.00
2015,08,29,01,47,4.60
2015,08,29,01,48,4.20
2015,08,29,01,49,8.60
2015,08,29,01,50,8.60
2015,08,29,01,51,7.00
2015,08,29,01,52,7.20
2015,08,29,01,53,7.40
2015,08,29,01,54,8.40
2015,08,29,01,55,8.60
2015,08,29,01,56,7.60
2015,08,29,01,57,7.20
2015,08,29,01,58,7.40
2015,08,29,01,59,7.90
2015,08,29,02,00,7.30
2015,08,29,02,01,5.10
2015,08,29,02,02,4.60
2015,08,29,02,03,5.10
2015,08,29,02,04,6.40
2015,08,29,02,05,4.20
2015,08,29,02,06,2.90
2015,08,29,02,07,3.10
2015,08,29,02,08,0.60
2015,08,29,02,09,1.50
2015,08,29,02,10,3.00
2015,08,29,02,11,4.10
2015,08,29,02,12,2.50
2015,08,29,02,13,0.60
2015,08,29,02,14,0.70
2015,08,29,02,15,0.00
2015,08,29,02,16,0.00
2015,08,29,02,17,0.00
2015,08,29,02,18,1.30
2015,08,29,02,19,4.90
2015,08,29,02,20,5.80
2015,08,29,02,21,5.60
2015,08,29,02,22,5.10
2015,08,29,02,23,6.80
2015,08,29,02,24,8.40
2015,08,29,02,25,6.90
2015,08,29,02,26,7.00
2015,08,29,02,27,7.00
2015,08,29,02,28,5.60
2015,08,29,02,29,6.20
2015,08,29,02,30,5.00
2015,08,29,02,31,5.50
2015,08,29,02,32,5.10
2015,08,29,02,33,4.20
2015,08,29,02,34,4.80
2015,08,29,02,35,4.60
2015,08,29,02,36,6.70
2015,08,29,02,37,5.00
2015,08,29,02,38,6.50
2015,08,29,02,39,7.20
2015,08,29,02,40,10.30
2015,08,29,02,41,9.80
2015,08,29,02,42,12.20
2015,08,29,02,43,12.50
2015,08,29,02,44,13.50
2015,08,29,02,45,9.30
2015,08,29,02,46,8.60
2015,08,29,02,47,8.30
2015,08,29,02,48,6.80
2015,08,29,02,49,7.40
2015,08,29,02,50,8.50
2015,08,29,02,51,9.30
2015,08,29,02,52,9.50
2015,08,29,02,53,10.70
2015,08,29,02,54,7.60
2015,08,29,02,55,8.60
2015,08,29,02,56,12.50
2015,08,29,02,57,12.50
2015,08,29,02,58,11.10
2015,08,29,02,59,14.00
2015,08,29,03,00,11.90
2015,08,29,03,01,12.50
2015,08,29,03,02,11.00
2015,08,29,03,03,6.60
2015,08,29,03,04,7.20
2015,08,29,03,05,7.00
2015,08,29,03,06,7.60
2015,08,29,03,07,8.40
2015,08,29,03,08,9.40
2015,08,29,03,09,10.70
2015,08,29,03,10,9.50
2015,08,29,03,11,8.60
2015,08,29,03,12,8.90
2015,08,29,03,13,7.00
2015,08,29,03,14,6.60
2015,08,29,03,15,3.40
2015,08,29,03,16,6.70
2015,08,29,03,17,4.40
2015,08,29,03,18,3.10
2015,08,29,03,19,3.40
2015,08,29,03,20,4.30
2015,08,29,03,21,5.30
2015,08,29,03,22,4.00
2015,08,29,03,23,6.20
2015,08,29,03,24,5.80
2015,08,29,03,25,6.60
2015,08,29,03,26,7.80
2015,08,29,03,27,9.90
2015,08,29,03,28,8.50
2015,08,29,03,29,11.10
2015,08,29,03,30,12.00
2015,08,29,03,31,9.70
2015,08,29,03,32,10.20
2015,08,29,03,33,8.90
2015,08,29,03,34,10.80
2015,08,29,03,35,7.60
2015,08,29,03,36,11.10
2015,08,29,03,37,10.40
2015,08,29,03,38,8.20
2015,08,29,03,39,13.60
2015,08,29,03,40,11.20
2015,08,29,03,41,6.90
2015,08,29,03,42,7.50
2015,08,29,03,43,7.90
2015,08,29,03,44,7.60
2015,08,29,03,45,8.30
2015,08,29,03,46,6.90
2015,08,29,03,47,7.30
2015,08,29,03,48,8.30
2015,08,29,03,49,8.50
2015,08,29,03,50,9.70
2015,08,29,03,51,8.70
2015,08,29,03,52,6.90
2015,08,29,03,53,8.60
2015,08,29,03,54,4.70
2015,08,29,03,55,6.80
2015,08,29,03,56,5.00
2015,08,29,03,57,3.30
2015,08,29,03,58,0.40
2015,08,29,03,59,0.60
2015,08,29,04,00,2.50
2015,08,29,04,01,3.90
2015,08,29,04,02,4.40
2015,08,29,04,03,5.10
2015,08,29,04,04,6.10
2015,08,29,04,05,5.70
2015,08,29,04,06,8.60
2015,08,29,04,07,8.60
2015,08,29,04,08,11.50
2015,08,29,04,09,9.90
2015,08,29,04,10,10.40
2015,08,29,04,11,9.30
2015,08,29,04,12,8.30
2015,08,29,04,13,10.60
2015,08,29,04,14,6.10
2015,08,29,04,15,5.90
2015,08,29,04,16,4.70
2015,08,29,04,17,8.00
2015,08,29,04,18,7.50
2015,08,29,04,19,8.50
2015,08,29,04,20,9.20
2015,08,29,04,21,8.10
2015,08,29,04,22,9.40
2015,08,29,04,23,12.90
2015,08,29,04,24,9.50
2015,08,29,04,25,9.30
2015,08,29,04,26,12.50
2015,08,29,04,27,8.10
2015,08,29,04,28,9.10
2015,08,29,04,29,13.10
2015,08,29,04,30,9.90
2015,08,29,04,31,10.60
2015,08,29,04,32,7.50
2015,08,29,04,33,8.80
2015,08,29,04,34,13.90
2015,08,29,04,35,14.60
2015,08,29,04,36,12.10
2015,08,29,04,37,12.90
2015,08,29,04,38,8.60
2015,08,29,04,39,7.40
2015,08,29,04,40,7.40
2015,08,29,04,41,9.30
2015,08,29,04,42,8.60
2015,08,29,04,43,10.20
2015,08,29,04,44,8.30
2015,08,29,04,45,11.90
2015,08,29,04,46,12.20
2015,08,29,04,47,12.60
2015,08,29,04,48,11.40
2015,08,29,04,49,11.60
2015,08,29,04,50,12.70
2015,08,29,04,51,10.30
2015,08,29,04,52,12.40
2015,08,29,04,53,10.40
2015,08,29,04,54,8.80
2015,08,29,04,55,8.60
2015,08,29,04,56,11.70
2015,08,29,04,57,8.10
2015,08,29,04,58,7.20
2015,08,29,04,59,6.20
2015,08,29,05,00,7.50
2015,08,29,05,01,7.70
2015,08,29,05,02,8.90
2015,08,29,05,03,8.90
2015,08,29,05,04,8.00
2015,08,29,05,05,8.30
2015,08,29,05,06,8.80
2015,08,29,05,07,7.90
2015,08,29,05,08,9.70
2015,08,29,05,09,13.20
2015,08,29,05,10,8.30
2015,08,29,05,11,7.60
2015,08,29,05,12,7.90
2015,08,29,05,13,5.00
2015,08,29,05,14,8.30
2015,08,29,05,15,7.70
2015,08,29,05,16,8.50
2015,08,29,05,17,8.70
2015,08,29,05,18,7.20
2015,08,29,05,19,6.90
2015,08,29,05,20,4.40
2015,08,29,05,21,5.60
2015,08,29,05,22,3.00
2015,08,29,05,23,0.40
2015,08,29,05,24,2.80
2015,08,29,05,25,6.90
2015,08,29,05,26,8.60
2015,08,29,05,27,8.30
2015,08,29,05,28,5.20
2015,08,29,05,29,3.80
2015,08,29,05,30,6.40
2015,08,29,05,31,8.10
2015,08,29,05,32,6.00
2015,08,29,05,33,7.70
2015,08,29,05,34,8.00
2015,08,29,05,35,5.10
2015,08,29,05,36,1.50
2015,08,29,05,37,5.40
2015,08,29,05,38,6.30
2015,08,29,05,39,3.90
2015,08,29,05,40,6.50
2015,08,29,05,41,6.40
2015,08,29,05,42,4.00
2015,08,29,05,43,3.20
2015,08,29,05,44,4.30
2015,08,29,05,45,3.90
2015,08,29,05,46,3.50
2015,08,29,05,47,3.50
2015,08,29,05,48,2.90
2015,08,29,05,49,3.30
2015,08,29,05,50,2.40
2015,08,29,05,51,0.60
2015,08,29,05,52,0.80
2015,08,29,05,53,2.50
2015,08,29,05,54,5.30
2015,08,29,05,55,6.90
2015,08,29,05,56,11.60
2015,08,29,05,57,13.60
2015,08,29,05,58,9.20
2015,08,29,05,59,6.50
2015,08,29,06,00,8.40
2015,08,29,06,01,14.40
2015,08,29,06,02,8.60
2015,08,29,06,03,6.30
2015,08,29,06,04,11.90
2015,08,29,06,05,5.80
2015,08,29,06,06,3.40
2015,08,29,06,07,2.20
2015,08,29,06,08,0.40
2015,08,29,06,09,2.70
2015,08,29,06,10,5.30
2015,08,29,06,11,2.90
2015,08,29,06,12,0.60
2015,08,29,06,13,3.40
2015,08,29,06,14,4.60
2015,08,29,06,15,6.70
2015,08,29,06,16,8.00
2015,08,29,06,17,5.60
2015,08,29,06,18,8.30
2015,08,29,06,19,7.70
2015,08,29,06,20,11.30
2015,08,29,06,21,5.50
2015,08,29,06,22,6.60
2015,08,29,06,23,5.40
2015,08,29,06,24,7.60
2015,08,29,06,25,5.40
2015,08,29,06,26,6.30
2015,08,29,06,27,5.80
2015,08,29,06,28,7.10
2015,08,29,06,29,6.00
2015,08,29,06,30,7.60
2015,08,29,06,31,9.50
2015,08,29,06,32,8.10
2015,08,29,06,33,6.00
2015,08,29,06,34,5.60
2015,08,29,06,35,5.80
2015,08,29,06,36,6.30
2015,08,29,06,37,4.30
2015,08,29,06,38,6.40
2015,08,29,06,39,6.50
2015,08,29,06,40,6.50
2015,08,29,06,41,4.50
2015,08,29,06,42,3.60
2015,08,29,06,43,4.10
2015,08,29,06,44,5.40
2015,08,29,06,45,6.20
2015,08,29,06,46,8.50
2015,08,29,06,47,8.30
2015,08,29,06,48,8.50
2015,08,29,06,49,10.30
2015,08,29,06,50,15.00
2015,08,29,06,51,15.70
2015,08,29,06,52,16.30
2015,08,29,06,53,12.80
2015,08,29,06,54,10.20
2015,08,29,06,55,9.70
2015,08,29,06,56,8.60
2015,08,29,06,57,11.20
2015,08,29,06,58,12.10
2015,08,29,06,59,14.90
2015,08,29,07,00,12.50
2015,08,29,07,01,8.30
2015,08,29,07,02,12.60
2015,08,29,07,03,10.60
2015,08,29,07,04,10.90
2015,08,29,07,05,7.30
2015,08,29,07,06,12.10
2015,08,29,07,07,8.80
2015,08,29,07,08,11.70
2015,08,29,07,09,9.50
2015,08,29,07,10,13.00
2015,08,29,07,11,7.70
2015,08,29,07,12,9.90
2015,08,29,07,13,11.90
2015,08,29,07,14,15.40
2015,08,29,07,15,10.90
2015,08,29,07,16,11.40
2015,08,29,07,17,15.90
2015,08,29,07,18,16.60
2015,08,29,07,19,12.70
2015,08,29,07,20,15.80
2015,08,29,07,21,11.30
2015,08,29,07,22,9.80
2015,08,29,07,23,12.20
2015,08,29,07,24,15.70
2015,08,29,07,25,13.60
2015,08,29,07,26,13.60
2015,08,29,07,27,15.00
2015,08,29,07,28,11.70
2015,08,29,07,29,11.40
2015,08,29,07,30,14.70
2015,08,29,07,31,10.20
2015,08,29,07,32,7.50
2015,08,29,07,33,11.30
2015,08,29,07,34,13.50
2015,08,29,07,35,9.90
2015,08,29,07,36,3.10
2015,08,29,07,37,14.90
2015,08,29,07,38,11.70
2015,08,29,07,39,8.20
2015,08,29,07,40,7.30
2015,08,29,07,41,5.00
2015,08,29,07,42,7.10
2015,08,29,07,43,12.30
2015,08,29,07,44,7.80
2015,08,29,07,45,10.70
2015,08,29,07,46,7.20
2015,08,29,07,47,11.70
2015,08,29,07,48,10.70
2015,08,29,07,49,12.40
2015,08,29,07,50,7.80
2015,08,29,07,51,5.30
2015,08,29,07,52,3.80
2015,08,29,07,53,8.40
2015,08,29,07,54,5.70
2015,08,29,07,55,7.40
2015,08,29,07,56,8.20
2015,08,29,07,57,6.60
2015,08,29,07,58,4.80
2015,08,29,07,59,7.40
2015,08,29,08,00,9.10
2015,08,29,08,01,4.90
2015,08,29,08,02,3.60
2015,08,29,08,03,0.90
2015,08,29,08,04,0.00
2015,08,29,08,05,2.70
2015,08,29,08,06,1.30
2015,08,29,08,07,1.80
2015,08,29,08,08,1.30
2015,08,29,08,09,1.40
2015,08,29,08,10,5.50
2015,08,29,08,11,3.00
2015,08,29,08,12,1.30
2015,08,29,08,13,1.00
2015,08,29,08,14,0.60
2015,08,29,08,15,3.70
2015,08,29,08,16,3.30
2015,08,29,08,17,4.80
2015,08,29,08,18,4.50
2015,08,29,08,19,3.50
2015,08,29,08,20,4.30
2015,08,29,08,21,7.10
2015,08,29,08,22,5.10
2015,08,29,08,23,5.70
2015,08,29,08,24,3.00
2015,08,29,08,25,1.90
2015,08,29,08,26,2.10
2015,08,29,08,27,3.00
2015,08,29,08,28,8.10
2015,08,29,08,29,5.30
2015,08,29,08,30,9.70
2015,08,29,08,31,3.90
2015,08,29,08,32,6.30
2015,08,29,08,33,2.00
2015,08,29,08,34,2.00
2015,08,29,08,35,3.60
2015,08,29,08,36,8.10
2015,08,29,08,37,6.10
2015,08,29,08,38,3.00
2015,08,29,08,39,5.20
2015,08,29,08,40,2.50
2015,08,29,08,41,4.20
2015,08,29,08,42,5.40
2015,08,29,08,43,6.10
2015,08,29,08,44,5.70
2015,08,29,08,45,4.60
2015,08,29,08,46,3.20
2015,08,29,08,47,9.20
2015,08,29,08,48,8.90
2015,08,29,08,49,6.70
2015,08,29,08,50,8.50
2015,08,29,08,51,6.60
2015,08,29,08,52,3.20
2015,08,29,08,53,5.10
2015,08,29,08,54,4.30
2015,08,29,08,55,5.30
2015,08,29,08,56,5.90
2015,08,29,08,57,13.10
2015,08,29,08,58,4.40
2015,08,29,08,59,15.60
2015,08,29,09,00,7.60
2015,08,29,09,01,5.60
2015,08,29,09,02,3.50
2015,08,29,09,03,9.00
2015,08,29,09,04,5.30
2015,08,29,09,05,9.30
2015,08,29,09,06,5.70
2015,08,29,09,07,2.90
2015,08,29,09,08,2.20
2015,08,29,09,09,8.00
2015,08,29,09,10,8.30
2015,08,29,09,11,12.60
2015,08,29,09,12,13.00
2015,08,29,09,13,8.10
2015,08,29,09,14,8.60
2015,08,29,09,15,14.60
2015,08,29,09,16,7.80
2015,08,29,09,17,8.60
2015,08,29,09,18,6.30
2015,08,29,09,19,6.30
2015,08,29,09,20,12.50
2015,08,29,09,21,13.90
2015,08,29,09,22,14.80
2015,08,29,09,23,9.70
2015,08,29,09,24,7.30
2015,08,29,09,25,9.00
2015,08,29,09,26,13.00
2015,08,29,09,27,10.40
2015,08,29,09,28,11.80
2015,08,29,09,29,9.70
2015,08,29,09,30,15.10
2015,08,29,09,31,11.70
2015,08,29,09,32,11.60
2015,08,29,09,33,10.00
2015,08,29,09,34,6.70
2015,08,29,09,35,8.90
2015,08,29,09,36,11.80
2015,08,29,09,37,8.80
2015,08,29,09,38,11.30
2015,08,29,09,39,18.20
2015,08,29,09,40,18.20
2015,08,29,09,41,21.40
2015,08,29,09,42,19.10
2015,08,29,09,43,19.00
2015,08,29,09,44,16.60
2015,08,29,09,45,12.20
2015,08,29,09,46,9.20
2015,08,29,09,47,12.40
2015,08,29,09,48,8.80
2015,08,29,09,49,15.10
2015,08,29,09,50,16.50
2015,08,29,09,51,11.50
2015,08,29,09,52,6.60
2015,08,29,09,53,13.00
2015,08,29,09,54,9.10
2015,08,29,09,55,12.20
2015,08,29,09,56,15.20
2015,08,29,09,57,22.00
2015,08,29,09,58,16.60
2015,08,29,09,59,15.80
2015,08,29,10,00,12.70
2015,08,29,10,01,16.30
2015,08,29,10,02,18.20
2015,08,29,10,03,16.00
2015,08,29,10,04,16.30
2015,08,29,10,05,14.30
2015,08,29,10,06,11.90
2015,08,29,10,07,17.10
2015,08,29,10,08,16.40
2015,08,29,10,09,19.90
2015,08,29,10,10,28.10
2015,08,29,10,11,26.30
2015,08,29,10,12,20.20
2015,08,29,10,13,24.60
2015,08,29,10,14,30.70
2015,08,29,10,15,18.10
2015,08,29,10,16,23.20
2015,08,29,10,17,16.60
2015,08,29,10,18,13.00
2015,08,29,10,19,24.30
2015,08,29,10,20,20.60
2015,08,29,10,21,22.50
2015,08,29,10,22,16.60
2015,08,29,10,23,18.70
2015,08,29,10,24,11.80
2015,08,29,10,25,22.20
2015,08,29,10,26,26.40
2015,08,29,10,27,15.60
2015,08,29,10,28,21.30
2015,08,29,10,29,18.80
2015,08,29,10,30,21.00
2015,08,29,10,31,18.90
2015,08,29,10,32,20.80
2015,08,29,10,33,20.50
2015,08,29,10,34,20.60
2015,08,29,10,35,23.50
2015,08,29,10,36,18.40
2015,08,29,10,37,13.60
2015,08,29,10,38,25.80
2015,08,29,10,39,19.30
2015,08,29,10,40,25.70
2015,08,29,10,41,27.30
2015,08,29,10,42,20.70
2015,08,29,10,43,23.40
2015,08,29,10,44,25.20
2015,08,29,10,45,23.60
2015,08,29,10,46,25.60
2015,08,29,10,47,18.80
2015,08,29,10,48,24.50
2015,08,29,10,49,21.50
2015,08,29,10,50,18.60
2015,08,29,10,51,21.50
2015,08,29,10,52,35.70
2015,08,29,10,53,30.10
2015,08,29,10,54,29.30
2015,08,29,10,55,33.60
2015,08,29,10,56,26.00
2015,08,29,10,57,26.00
2015,08,29,10,58,25.10
2015,08,29,10,59,25.80
2015,08,29,11,00,30.00
2015,08,29,11,01,23.80
2015,08,29,11,02,27.40
2015,08,29,11,03,32.90
2015,08,29,11,04,36.80
2015,08,29,11,05,32.10
2015,08,29,11,06,32.60
2015,08,29,11,07,25.10
2015,08,29,11,08,21.00
2015,08,29,11,09,26.90
2015,08,29,11,10,40.10
2015,08,29,11,11,28.50
2015,08,29,11,12,32.20
2015,08,29,11,13,28.30
2015,08,29,11,14,31.80
2015,08,29,11,15,28.80
2015,08,29,11,16,25.20
2015,08,29,11,17,28.50
2015,08,29,11,18,28.90
2015,08,29,11,19,25.70
2015,08,29,11,20,26.10
2015,08,29,11,21,24.00
2015,08,29,11,22,24.30
2015,08,29,11,23,26.90
2015,08,29,11,24,28.50
2015,08,29,11,25,27.00
2015,08,29,11,26,15.20
2015,08,29,11,27,20.20
2015,08,29,11,28,32.80
2015,08,29,11,29,30.80
2015,08,29,11,30,40.80
2015,08,29,11,31,33.30
2015,08,29,11,32,30.10
2015,08,29,11,33,23.40
2015,08,29,11,34,22.90
2015,08,29,11,35,31.40
2015,08,29,11,36,31.00
2015,08,29,11,37,31.00
2015,08,29,11,38,25.00
2015,08,29,11,39,30.50
2015,08,29,11,40,22.40
2015,08,29,11,41,24.90
2015,08,29,11,42,20.80
2015,08,29,11,43,30.70
2015,08,29,11,44,23.20
2015,08,29,11,45,20.70
2015,08,29,11,46,21.00
2015,08,29,11,47,24.90
2015,08,29,11,48,19.40
2015,08,29,11,49,20.70
2015,08,29,11,50,24.90
2015,08,29,11,51,17.40
2015,08,29,11,52,20.00
2015,08,29,11,53,16.90
2015,08,29,11,54,19.10
2015,08,29,11,55,14.60
2015,08,29,11,56,10.30
2015,08,29,11,57,12.80
2015,08,29,11,58,12.70
2015,08,29,11,59,11.70
2015,08,29,12,00,19.70
2015,08,29,12,01,16.20
2015,08,29,12,02,13.20
2015,08,29,12,03,15.60
2015,08,29,12,04,14.90
2015,08,29,12,05,16.30
2015,08,29,12,06,17.10
2015,08,29,12,07,21.00
2015,08,29,12,08,15.60
2015,08,29,12,09,13.80
2015,08,29,12,10,11.90
2015,08,29,12,11,10.70
2015,08,29,12,12,9.70
2015,08,29,12,13,10.70
2015,08,29,12,14,16.30
2015,08,29,12,15,10.90
2015,08,29,12,16,11.70
2015,08,29,12,17,17.00
2015,08,29,12,18,18.80
2015,08,29,12,19,10.30
2015,08,29,12,20,7.30
2015,08,29,12,21,8.30
2015,08,29,12,22,6.60
2015,08,29,12,23,8.30
2015,08,29,12,24,9.80
2015,08,29,12,25,7.40
2015,08,29,12,26,7.40
2015,08,29,12,27,5.20
2015,08,29,12,28,5.50
2015,08,29,12,29,11.40
2015,08,29,12,30,8.80
2015,08,29,12,31,5.50
2015,08,29,12,32,3.30
2015,08,29,12,33,5.60
2015,08,29,12,34,7.00
2015,08,29,12,35,5.00
2015,08,29,12,36,3.80
2015,08,29,12,37,4.40
2015,08,29,12,38,5.70
2015,08,29,12,39,7.30
2015,08,29,12,40,4.80
2015,08,29,12,41,3.90
2015,08,29,12,42,7.30
2015,08,29,12,43,7.40
2015,08,29,12,44,9.20
2015,08,29,12,45,8.10
2015,08,29,12,46,8.80
2015,08,29,12,47,9.80
2015,08,29,12,48,12.30
2015,08,29,12,49,10.30
2015,08,29,12,50,8.80
2015,08,29,12,51,10.80
2015,08,29,12,52,16.40
2015,08,29,12,53,17.50
2015,08,29,12,54,13.80
2015,08,29,12,55,11.00
2015,08,29,12,56,9.20
2015,08,29,12,57,6.20
2015,08,29,12,58,5.40
2015,08,29,12,59,4.70
2015,08,29,13,00,7.30
2015,08,29,13,01,5.70
2015,08,29,13,02,5.70
2015,08,29,13,03,7.60
2015,08,29,13,04,5.30
2015,08,29,13,05,8.60
2015,08,29,13,06,8.10
2015,08,29,13,07,5.80
2015,08,29,13,08,7.30
2015,08,29,13,09,5.30
2015,08,29,13,10,5.90
2015,08,29,13,11,4.50
2015,08,29,13,12,0.60
2015,08,29,13,13,2.30
2015,08,29,13,14,1.20
2015,08,29,13,15,0.80
2015,08,29,13,16,2.90
2015,08,29,13,17,3.20
2015,08,29,13,18,10.70
2015,08,29,13,19,13.00
2015,08,29,13,20,14.60
2015,08,29,13,21,12.60
2015,08,29,13,22,11.10
2015,08,29,13,23,8.70
2015,08,29,13,24,8.30
2015,08,29,13,25,20.50
2015,08,29,13,26,18.00
2015,08,29,13,27,16.70
2015,08,29,13,28,13.20
2015,08,29,13,29,14.00
2015,08,29,13,30,10.30
2015,08,29,13,31,10.30
2015,08,29,13,32,13.00
2015,08,29,13,33,14.10
2015,08,29,13,34,7.60
2015,08,29,13,35,5.80
2015,08,29,13,36,8.10
2015,08,29,13,37,6.40
2015,08,29,13,38,11.00
2015,08,29,13,39,11.10
2015,08,29,13,40,15.60
2015,08,29,13,41,15.20
2015,08,29,13,42,10.70
2015,08,29,13,43,10.40
2015,08,29,13,44,9.30
2015,08,29,13,45,11.30
2015,08,29,13,46,10.20
2015,08,29,13,47,11.90
2015,08,29,13,48,10.30
2015,08,29,13,49,12.50
2015,08,29,13,50,13.50
2015,08,29,13,51,11.90
2015,08,29,13,52,13.20
2015,08,29,13,53,14.80
2015,08,29,13,54,13.00
2015,08,29,13,55,14.50
2015,08,29,13,56,16.90
2015,08,29,13,57,22.70
2015,08,29,13,58,16.60
2015,08,29,13,59,23.90
2015,08,29,14,00,32.70
2015,08,29,14,01,19.80
2015,08,29,14,02,21.90
2015,08,29,14,03,18.40
2015,08,29,14,04,22.80
2015,08,29,14,05,30.80
2015,08,29,14,06,29.70
2015,08,29,14,07,37.00
2015,08,29,17,51,6.00
2015,08,29,17,52,8.10
2015,08,29,17,53,6.30
2015,08,29,17,54,3.70
2015,08,29,17,55,2.60
2015,08,29,17,56,0.50
2015,08,29,17,57,3.20
2015,08,29,17,58,5.20
2015,08,29,17,59,3.40
2015,08,29,18,00,5.50
2015,08,29,18,01,5.10
2015,08,29,18,02,3.40
2015,08,29,18,03,2.60
2015,08,29,18,04,3.00
2015,08,29,18,05,5.00
2015,08,29,18,06,6.90
2015,08,29,18,07,7.40
2015,08,29,18,08,7.40
2015,08,29,18,09,4.90
2015,08,29,18,10,12.10
2015,08,29,18,11,7.20
2015,08,29,18,12,6.30
2015,08,29,18,13,8.20
2015,08,29,18,14,11.30
2015,08,29,18,15,15.60
2015,08,29,18,16,11.20
2015,08,29,18,17,6.70
2015,08,29,18,18,7.20
2015,08,29,18,19,10.30
2015,08,29,18,20,6.60
2015,08,29,18,21,10.50
2015,08,29,18,22,9.60
2015,08,29,18,23,5.90
2015,08,29,18,24,8.40
2015,08,29,18,25,6.30
2015,08,29,18,26,4.20
2015,08,29,18,27,5.80
2015,08,29,18,28,5.80
2015,08,29,18,29,8.00
2015,08,29,18,30,7.00
2015,08,29,18,31,4.00
2015,08,29,18,32,3.50
2015,08,29,18,33,1.10
2015,08,29,18,34,1.10
2015,08,29,18,35,1.20
2015,08,29,18,36,1.60
2015,08,29,18,37,2.70
2015,08,29,18,38,3.50
2015,08,29,18,39,3.40
2015,08,29,18,40,4.40
2015,08,29,18,41,6.20
2015,08,29,18,42,5.20
2015,08,29,18,43,4.90
2015,08,29,18,44,4.40
2015,08,29,18,45,4.80
2015,08,29,18,46,5.20
2015,08,29,18,47,3.40
2015,08,29,18,48,5.80
2015,08,29,18,49,5.60
2015,08,29,18,50,5.50
2015,08,29,18,51,6.30
2015,08,29,18,52,6.80
2015,08,29,18,53,3.10
2015,08,29,18,54,4.30
2015,08,29,18,55,3.90
2015,08,29,18,56,5.10
2015,08,29,18,57,5.60
2015,08,29,18,58,3.00
2015,08,29,18,59,5.30
2015,08,29,19,00,4.90
2015,08,29,19,01,2.10
2015,08,29,19,02,3.50
2015,08,29,19,03,3.50
2015,08,29,19,04,1.90
2015,08,29,19,05,3.10
2015,08,29,19,06,2.80
2015,08,29,19,07,4.10
2015,08,29,19,08,3.50
2015,08,29,19,09,7.90
2015,08,29,19,10,3.70
2015,08,29,19,11,3.20
2015,08,29,19,12,3.40
2015,08,29,19,13,2.20
2015,08,29,19,14,3.40
2015,08,29,19,15,5.50
2015,08,29,19,16,4.40
2015,08,29,19,17,5.50
2015,08,29,19,18,4.50
2015,08,29,19,19,5.50
2015,08,29,19,20,5.50
2015,08,29,19,21,5.30
2015,08,29,19,22,5.80
2015,08,29,19,23,5.70
2015,08,29,19,24,6.30
2015,08,29,19,25,6.10
2015,08,29,19,26,6.70
2015,08,29,19,27,5.50
2015,08,29,19,28,6.60
2015,08,29,19,29,5.70
2015,08,29,19,30,6.90
2015,08,29,19,31,6.50
2015,08,29,19,32,4.90
2015,08,29,19,33,5.80
2015,08,29,19,34,5.50
2015,08,29,19,35,6.00
2015,08,29,19,36,4.40
2015,08,29,19,37,3.00
2015,08,29,19,38,4.60
2015,08,29,19,39,6.50
2015,08,29,19,40,5.30
2015,08,29,19,41,4.90
2015,08,29,19,42,5.20
2015,08,29,19,43,3.90
2015,08,29,19,44,3.10
2015,08,29,19,45,3.70
2015,08,29,19,46,4.10
2015,08,29,19,47,3.50
2015,08,29,19,48,3.90
2015,08,29,19,49,2.90
2015,08,29,19,50,3.60
2015,08,29,19,51,3.70
2015,08,29,19,52,3.70
2015,08,29,19,53,4.90
2015,08,29,19,54,4.90
2015,08,29,19,55,3.20
2015,08,29,19,56,2.50
2015,08,29,19,57,1.20
2015,08,29,19,58,1.80
2015,08,29,19,59,0.90
2015,08,29,20,00,0.40
2015,08,29,20,01,0.30
2015,08,29,20,02,0.10
2015,08,29,20,03,0.30
2015,08,29,20,04,1.20
2015,08,29,20,05,2.10
2015,08,29,20,06,1.60
2015,08,29,20,07,1.60
2015,08,29,20,08,1.80
2015,08,29,20,09,2.60
2015,08,29,20,10,2.00
2015,08,29,20,11,3.60
2015,08,29,20,12,3.10
2015,08,29,20,13,4.30
2015,08,29,20,14,3.20
2015,08,29,20,15,3.50
2015,08,29,20,16,3.30
2015,08,29,20,17,3.50
2015,08,29,20,18,4.40
2015,08,29,20,19,2.70
2015,08,29,20,20,4.40
2015,08,29,20,21,5.00
2015,08,29,20,22,4.20
2015,08,29,20,23,4.50
2015,08,29,20,24,5.40
2015,08,29,20,25,4.60
2015,08,29,20,26,4.50
2015,08,29,20,27,2.50
2015,08,29,20,28,4.20
2015,08,29,20,29,4.90
2015,08,29,20,30,4.70
2015,08,29,20,31,5.80
2015,08,29,20,32,5.20
2015,08,29,20,33,4.00
2015,08,29,20,34,5.50
2015,08,29,20,35,4.60
2015,08,29,20,36,5.00
2015,08,29,20,37,5.50
2015,08,29,20,38,6.80
2015,08,29,20,39,6.20
2015,08,29,20,40,6.70
2015,08,29,20,41,6.80
2015,08,29,20,42,5.60
2015,08,29,20,43,8.00
2015,08,29,20,44,9.20
2015,08,29,20,45,6.40
2015,08,29,20,46,4.70
2015,08,29,20,47,10.30
2015,08,29,20,48,7.00
2015,08,29,20,49,6.70
2015,08,29,20,50,10.30
2015,08,29,20,51,9.80
2015,08,29,20,52,7.20
2015,08,29,20,53,6.50
2015,08,29,20,54,8.60
2015,08,29,20,55,5.80
2015,08,29,20,56,5.30
2015,08,29,20,57,6.10
2015,08,29,20,58,7.30
2015,08,29,20,59,6.30
2015,08,29,21,00,6.90
2015,08,29,21,01,8.90
2015,08,29,21,02,7.00
2015,08,29,21,03,3.80
2015,08,29,21,04,4.90
2015,08,29,21,05,7.00
2015,08,29,21,06,5.40
2015,08,29,21,07,6.40
2015,08,29,21,08,4.90
2015,08,29,21,09,5.80
2015,08,29,21,10,4.70
2015,08,29,21,11,3.10
2015,08,29,21,12,4.60
2015,08,29,21,13,5.50
2015,08,29,21,14,6.80
2015,08,29,21,15,6.20
2015,08,29,21,16,3.70
2015,08,29,21,17,3.90
2015,08,29,21,18,2.20
2015,08,29,21,19,3.50
2015,08,29,21,20,1.30
2015,08,29,21,21,5.90
2015,08,29,21,22,6.90
2015,08,29,21,23,4.60
2015,08,29,21,24,5.00
2015,08,29,21,25,6.70
2015,08,29,21,26,7.60
2015,08,29,21,27,5.40
2015,08,29,21,28,5.60
2015,08,29,21,29,5.10
2015,08,29,21,30,5.90
2015,08,29,21,31,4.00
2015,08,29,21,32,1.80
2015,08,29,21,33,2.80
2015,08,29,21,34,4.80